This is the latest recevied weather packets stored in our database for station/object K4HOG. If no packets are shown the sender has not sent any weather packets the latest 10 day(s).
| Time | Temp. | Humidity | Pressure | Rain* | Wind** | Luminosity | Snow |
|---|---|---|---|---|---|---|---|
| 1778024538 | 26.67° C | 55% | 1014.1 hPa | 0 mm | - | 27 W/m² | - |
| 1778024234 | 26.11° C | 55% | 1014 hPa | 0 mm | - | 27 W/m² | - |
| 1778023932 | 26.11° C | 55% | 1013.8 hPa | 0 mm | - | 30 W/m² | - |
| 1778023629 | 26.67° C | 55% | 1013.8 hPa | 0 mm | - | 37 W/m² | - |
| 1778023327 | 26.67° C | 54% | 1013.7 hPa | 0 mm | - | 42 W/m² | - |
| 1778023023 | 27.22° C | 53% | 1013.7 hPa | 0 mm | - | 48 W/m² | - |
| 1778022722 | 27.22° C | 52% | 1013.8 hPa | 0 mm | - | 51 W/m² | - |
| 1778022420 | 27.78° C | 52% | 1013.8 hPa | 0 mm | - | 55 W/m² | - |
| 1778022116 | 27.78° C | 50% | 1013.8 hPa | 0 mm | - | 59 W/m² | - |
| 1778021813 | 28.33° C | 48% | 1013.7 hPa | 0 mm | - | 62 W/m² | - |
| 1778021509 | 28.89° C | 46% | 1013.8 hPa | 0 mm | - | 69 W/m² | - |
| 1778021205 | 28.89° C | 44% | 1013.7 hPa | 0 mm | - | 76 W/m² | - |
| 1778020904 | 28.89° C | 47% | 1013.9 hPa | 0 mm | - | 91 W/m² | - |
| 1778020601 | 29.44° C | 48% | 1013.8 hPa | 0 mm | - | 132 W/m² | - |
| 1778020296 | 29.44° C | 47% | 1013.9 hPa | 0 mm | - | 142 W/m² | - |
| 1778019992 | 30° C | 43% | 1013.7 hPa | 0 mm | - | 161 W/m² | - |
| 1778019689 | 30° C | 46% | 1013.7 hPa | 0 mm | - | 170 W/m² | - |
| 1778019386 | 30.56° C | 40% | 1013.8 hPa | 0 mm | - | 168 W/m² | - |
| 1778019082 | 30.56° C | 39% | 1013.9 hPa | 0 mm | - | 208 W/m² | - |
| 1778018780 | 31.11° C | 42% | 1013.7 hPa | 0 mm | - | 213 W/m² | - |
| 1778018478 | 31.11° C | 38% | 1014 hPa | 0 mm | - | 232 W/m² | - |
| 1778018175 | 31.11° C | 39% | 1014 hPa | 0 mm | - | 259 W/m² | - |
| 1778017873 | 31.11° C | 37% | 1014 hPa | 0 mm | - | 291 W/m² | - |
| 1778017571 | 31.11° C | 39% | 1014 hPa | 0 mm | - | 317 W/m² | - |
| 1778017268 | 31.11° C | 37% | 1014 hPa | 0 mm | - | 313 W/m² | - |
* Rain latest hour (hover to see other rain measurements)
** Current wind speed in m/s (hover to see current wind gust speed)